Orbital Elements at Epoch 2459200.5 (2020-Dec-17.0) TDB
Reference: JPL 28 (heliocentric ecliptic J2000)
Element | Value | Uncertainty (1-sigma) | Units |
e | .08843041833270694 | 3.5391e-08 | |
a | 2.695289738310521 | 1.1173e-08 | au |
q | 2.45694413922387 | 9.6852e-08 | au |
i | 2.695012290875603 | 4.1368e-06 | deg |
node | 162.6688335617737 | 7.4409e-05 | deg |
peri | 228.1752641689966 | 7.8033e-05 | deg |
M | 48.75913376531066 | 2.224e-05 | deg |
tp | 2458981.592775637154 (2020-May-12.09277564) | 9.9728e-05 | TDB |
period | 1616.242838725137 4.43 | 1.005e-05 2.752e-08 | d yr |
n | .2227388059358465 | 1.385e-09 | deg/d |
Q | 2.933635337397173 | 1.2161e-08 | au |
|
| | Orbit Determination Parameters
Additional Information
|